User: anonymous   Login
Location: Unspecified
(0.0000°N, 0.0000°E)
Time: 09:38:38
(UTC+01:00)
Language:

Cosmos 1538 Rocket - Orbit

View from above orbital plane
View from above orbital plane
View from above satellite
View from above satellite

Ground track
Ground track

The orbit data is extracted from the following two-line orbital elements,

1 14760U 84019B   17017.60307012 -.00000032 +00000-0 -17871-5 0  9991
2 14760 074.0417 038.0856 0029171 293.6657 154.7799 14.35808628721750
Epoch (UTC): 17 January 2017 14:28:25
Eccentricity: 0.0029171
inclination: 74.0417°
perigee height: 751 km
apogee height: 793 km
right ascension of ascending node: 38.0856°
argument of perigee: 293.6657°
revolutions per day: 14.35808628
mean anomaly at epoch: 154.7799°
orbit number at epoch: 72175

The dashed part of the orbit path shows where the satellite is in the earth's shadow,  

DLR